[[{"header":{"parameterUnit":"m.s-1","parameterCategory":1,"la1":30.2991,"la2":30.254,"lo1":-89.0895,"lo2":-89.0444,"dy":0.0017,"dx":0.0017,"nx":28,"ny":28,"refTime":"2024-08-29T03:00:00:Z","depth":0,"parameterNumber":2,"parameterNumberName":"U-component_of_WINDS"},"data":[0,0,0,0,0,0,0,0,0,0,0,0,0,0,0,0,0,0,0,0,0,0,0,0,0,0,0,0,0,0,0,0,0,0,0,0,0,0,0,0,0,0,0,0,0,0,0,0,0,0,0,0,0,0,0,0,0,0,-2.373,-2.3725,0,-2.3286,-2.3281,-2.3276,-2.3012,-2.3011,-2.301,-2.3009,-2.2553,-2.2542,-2.2531,0,0,0,0,0,0,0,0,0,0,0,0,0,-2.4347,-2.4337,-2.373,-2.3725,-2.3719,-2.3287,-2.328,-2.3274,-2.3012,-2.3011,-2.3009,-2.3008,-2.2556,-2.2543,-2.253,0,0,0,0,0,0,0,0,0,0,0,0,0,-2.4009,-2.4334,-2.3731,-2.3536,-2.3514,-2.3288,-2.328,-2.3273,-2.3012,-2.3011,-2.3009,-2.3007,-2.2561,-2.2545,-2.2528,-2.2461,0,0,-2.2478,-2.247,0,0,0,0,0,0,0,0,-2.4028,-2.3986,-2.357,-2.3549,-2.3524,-2.3202,-2.333,-2.3,-2.3013,-2.3203,-2.3009,-2.3007,-2.277,-2.2736,-2.2657,-2.2439,-2.242,-2.2476,-2.2466,-2.2459,-2.2454,0,0,0,0,0,0,0,-2.4052,-2.4004,-2.3554,-2.3565,-2.3536,-2.3469,-2.3419,-2.3267,-2.3002,-2.3186,-2.3166,-2.3117,-2.2757,-2.2674,-2.2644,-2.2413,-2.2477,-2.2462,-2.2452,-2.2445,-2.2114,-2.2115,0,0,0,0,0,0,-2.4107,-2.4025,-2.3568,-2.3541,-2.3777,-2.346,-2.3404,-2.3308,-2.3003,-2.2955,-2.3119,-2.3107,-2.2703,-2.2664,-2.2627,-2.2525,-2.2459,-2.2444,-2.2434,-2.2113,-2.2114,-2.2115,0,0,0,0,0,0,-2.4121,-2.4069,-2.3586,-2.3777,-2.3711,-2.3451,-2.3345,-2.33,-2.3215,-2.2952,-2.2903,-2.3082,-2.27,-2.265,-2.2503,-2.2506,-2.2436,-2.2421,-2.2111,-2.2113,-2.2115,-2.2325,0,0,0,0,0,0,-2.414,-2.4075,-2.4049,-2.3779,-2.3702,-2.3472,-2.3345,-2.3292,-2.3188,-2.3167,-2.2905,-2.2859,-2.2695,-2.2529,-2.2487,-2.2482,-2.2408,-2.211,-2.2112,-2.2114,-2.2316,-2.2333,-2.2348,0,0,0,0,0,-2.4163,-2.4126,-2.4049,-2.3995,-2.3663,-2.3473,-2.3428,-2.324,-2.3189,-2.3159,-2.2989,-2.2868,-2.2513,-2.2517,-2.2466,-2.2457,-2.2109,-2.2112,-2.2114,-2.2309,-2.233,-2.2348,0,0,0,0,0,0,-2.4403,-2.4087,-2.3998,-2.3873,-2.3702,-2.3429,-2.3385,-2.3268,-2.3107,-2.3095,-2.2867,-2.281,-2.2685,-2.2555,-2.2565,-2.2373,-2.2297,-2.229,-2.2463,-2.248,-2.2496,-2.253,-2.2394,0,0,0,0,0,-2.4441,-2.4315,-2.4045,-2.396,-2.3879,-2.3648,-2.3557,-2.3427,-2.324,-2.3166,-2.2985,-2.2808,-2.2656,-2.2561,-2.2406,-2.2296,-2.2234,-2.2264,-2.228,-2.2295,-2.2291,-2.222,-2.223,-2.2124,-2.2124,-2.2124,0,0,-2.4519,-2.4331,-2.4265,-2.4003,-2.3855,-2.3727,-2.3588,-2.3459,-2.3361,-2.3146,-2.2996,-2.2857,-2.2644,-2.2514,-2.2448,-2.2403,-2.2306,-2.2298,-2.2311,-2.2299,-2.2224,-2.2234,-2.2243,-2.2126,-2.2125,-2.2125,0,0,-2.4596,-2.4442,-2.4353,-2.4207,-2.3984,-2.383,-2.3809,-2.3552,-2.3452,-2.3297,-2.3132,-2.3012,-2.2755,-2.2609,-2.2502,-2.252,-2.2402,-2.2476,-2.2559,-2.2492,-2.2501,-2.2507,-2.2512,-2.2516,-2.2473,-2.2474,-2.2474,0,-2.4721,-2.4523,-2.4322,-2.4202,-2.4091,-2.3889,-2.3796,-2.3664,-2.3403,-2.333,-2.3283,-2.2954,-2.2797,-2.2629,-2.2633,-2.2553,-2.252,-2.2505,-2.2516,-2.252,-2.2523,-2.2525,-2.2528,-2.2484,-2.2483,-2.2482,-2.2481,0,-2.4686,-2.4551,-2.4506,-2.4259,-2.4142,-2.4037,-2.3818,-2.3723,-2.3602,-2.3453,-2.3296,-2.3099,-2.29,-2.2851,-2.2731,-2.2665,-2.2643,-2.256,-2.2478,-2.2547,-2.2545,-2.2544,-2.2499,-2.2495,-2.2492,-2.2489,0,0,-2.4904,-2.4545,-2.4531,-2.4415,-2.4153,-2.4044,-2.3928,-2.3733,-2.3656,-2.3482,-2.3377,-2.3163,-2.3083,-2.2961,-2.2823,-2.2765,-2.2789,-2.2686,-2.2677,-2.2711,-2.2701,-2.2766,-2.2771,-2.2709,-2.2708,-2.2707,-2.2718,0,-2.4941,-2.4725,-2.4539,-2.439,-2.4261,-2.4066,-2.3964,-2.3792,-2.3648,-2.3516,-2.3356,-2.3208,-2.3114,-2.3038,-2.2972,-2.2801,-2.2784,-2.2797,-2.2608,-2.2604,-2.2668,-2.2769,-2.2838,-2.2859,-2.2717,-2.2716,-2.2716,0,-2.4957,-2.4791,-2.4629,-2.4377,-2.4316,-2.4229,-2.4033,-2.3911,-2.371,-2.3608,-2.3472,-2.3326,-2.3192,-2.3125,-2.2936,-2.2949,-2.286,-2.2764,-2.276,-2.2735,-2.2665,-2.2747,-2.286,-2.2864,-2.2713,-2.2713,-2.2713,0,-2.5131,-2.4866,-2.4734,-2.4641,-2.4345,-2.4287,-2.4161,-2.3958,-2.3852,-2.368,-2.3608,-2.3425,-2.3324,-2.3184,-2.2992,-2.2961,-2.2823,-2.2739,-2.2734,-2.2739,-2.2715,-2.2719,-2.2816,-2.2659,-2.2659,-2.2659,-2.2659,0,-2.5193,-2.5102,-2.4808,-2.4728,-2.4618,-2.4404,-2.4301,-2.4157,-2.3978,-2.3864,-2.3683,-2.358,-2.3333,-2.3199,-2.3048,-2.2914,-2.287,-2.2783,-2.2744,-2.2799,-2.2811,-2.2738,-2.2732,-2.2659,-2.2659,-2.2659,-2.2659,0,-2.537,-2.517,-2.5013,-2.4744,-2.4674,-2.4606,-2.4374,-2.4287,-2.4132,-2.399,-2.3944,-2.3701,-2.3534,-2.3328,-2.3095,-2.2993,-2.2874,-2.2815,-2.2942,-2.2919,-2.2926,-2.2928,-2.2979,-2.2974,-2.2824,-2.2826,-2.2827,0,-2.5423,-2.5347,-2.5071,-2.4982,-2.4861,-2.472,-2.461,-2.4395,-2.4288,-2.4051,-2.3992,-2.3811,-2.3655,-2.3397,-2.3199,-2.3019,-2.2953,-2.2983,-2.2925,-2.2982,-2.2953,-2.296,-2.295,-2.3,-2.3002,-2.3005,-2.3006,0,-2.5537,-2.5441,-2.5291,-2.5105,-2.4979,-2.4822,-2.4657,-2.4594,-2.4345,-2.4233,-2.406,-2.3939,-2.37,-2.3522,-2.3316,-2.3183,-2.3053,-2.3026,-2.3015,-2.3071,-2.3148,-2.3105,-2.2983,-2.3026,-2.3024,-2.3023,-2.3022,-2.3021,-2.5652,-2.5576,-2.5368,-2.5206,-2.5059,-2.4908,-2.4813,-2.4645,-2.4497,-2.4286,-2.4167,-2.3997,-2.3794,-2.3504,-2.3376,-2.3238,-2.3191,-2.3176,-2.3172,-2.3171,-2.3188,-2.317,-2.32,-2.3199,-2.3198,-2.3197,-2.3197,0,-2.5757,-2.5614,-2.5466,-2.5241,-2.5112,-2.5,-2.4811,-2.4711,-2.4563,-2.4385,-2.4235,-2.4034,-2.386,-2.3647,-2.3457,-2.3388,-2.3323,-2.3345,-2.3349,-2.332,-2.3241,-2.3269,-2.3401,-2.3401,-2.3401,-2.3401,-2.3401,-2.3401,-2.5797,-2.5661,-2.554,-2.5328,-2.5183,-2.5016,-2.4917,-2.4776,-2.4632,-2.4417,-2.4271,-2.4133,-2.3939,-2.3734,-2.3568,-2.3509,-2.3448,-2.3488,-2.3412,-2.3343,-2.3326,-2.3309,-2.3334,-2.3477,-2.3477,-2.3501,-2.3501,-2.3502]},{"header":{"parameterUnit":"m.s-1","parameterCategory":1,"la1":30.2991,"la2":30.254,"lo1":-89.0895,"lo2":-89.0444,"dy":0.0017,"dx":0.0017,"nx":28,"ny":28,"refTime":"2024-08-29T03:00:00:Z","depth":0,"parameterNumber":3,"parameterNumberName":"V-component_of_WINDS"},"data":[0,0,0,0,0,0,0,0,0,0,0,0,0,0,0,0,0,0,0,0,0,0,0,0,0,0,0,0,0,0,0,0,0,0,0,0,0,0,0,0,0,0,0,0,0,0,0,0,0,0,0,0,0,0,0,0,0,0,3.5115,3.5115,0,3.5091,3.5091,3.509,3.5072,3.5072,3.5072,3.5072,3.5043,3.5042,3.5042,0,0,0,0,0,0,0,0,0,0,0,0,0,3.5145,3.5145,3.5115,3.5115,3.5115,3.5091,3.5091,3.509,3.5072,3.5072,3.5072,3.5072,3.5043,3.5042,3.5042,0,0,0,0,0,0,0,0,0,0,0,0,0,3.5127,3.5144,3.5115,3.5103,3.5102,3.5091,3.5091,3.509,3.5072,3.5072,3.5072,3.5072,3.5043,3.5042,3.5041,3.504,0,0,3.5038,3.5038,0,0,0,0,0,0,0,0,3.5128,3.5126,3.5105,3.5104,3.5102,3.5085,3.509,3.5073,3.5072,3.5083,3.5072,3.5072,3.5057,3.5055,3.505,3.5039,3.5037,3.5038,3.5038,3.5037,3.5037,0,0,0,0,0,0,0,3.513,3.5127,3.5106,3.5105,3.5103,3.5098,3.5096,3.5087,3.5071,3.5082,3.5081,3.5079,3.5056,3.5051,3.5049,3.5037,3.5038,3.5038,3.5037,3.5037,3.5025,3.5026,0,0,0,0,0,0,3.5133,3.5128,3.5106,3.5105,3.5115,3.5098,3.5095,3.509,3.5071,3.5068,3.5079,3.5078,3.5053,3.5051,3.5048,3.5047,3.5037,3.5037,3.5036,3.5025,3.5026,3.5026,0,0,0,0,0,0,3.5134,3.5131,3.5107,3.5116,3.5113,3.5098,3.5093,3.509,3.5086,3.5069,3.5066,3.5077,3.5053,3.505,3.5043,3.5045,3.5036,3.5035,3.5025,3.5025,3.5026,3.5043,0,0,0,0,0,0,3.5135,3.5132,3.5131,3.5117,3.5113,3.5103,3.5093,3.509,3.5084,3.5083,3.5066,3.5063,3.5052,3.5045,3.5042,3.5044,3.5034,3.5025,3.5025,3.5026,3.5042,3.5044,3.5045,0,0,0,0,0,3.5136,3.5135,3.5131,3.5129,3.5112,3.5103,3.5101,3.5089,3.5085,3.5084,3.5074,3.5064,3.5046,3.5044,3.5041,3.5043,3.5024,3.5025,3.5026,3.5041,3.5043,3.5045,0,0,0,0,0,0,3.5148,3.5133,3.5128,3.5123,3.5115,3.51,3.5098,3.5091,3.5083,3.5081,3.5066,3.5063,3.5058,3.505,3.5048,3.5042,3.5034,3.5034,3.5047,3.5049,3.5051,3.5052,3.5034,0,0,0,0,0,3.5151,3.5146,3.5133,3.5129,3.5126,3.5113,3.5109,3.5101,3.5091,3.5087,3.5076,3.5066,3.5059,3.5053,3.5045,3.5041,3.5038,3.5041,3.5043,3.5044,3.5044,3.5043,3.5045,3.5028,3.5028,3.5028,0,0,3.5155,3.5146,3.5143,3.5132,3.5124,3.5119,3.511,3.5104,3.51,3.5086,3.5079,3.5071,3.5059,3.5055,3.5052,3.5048,3.5049,3.5045,3.5047,3.5045,3.5044,3.5046,3.5047,3.5028,3.5028,3.5028,0,0,3.516,3.5153,3.515,3.5144,3.5134,3.5126,3.5126,3.5113,3.5108,3.5102,3.5092,3.5087,3.5073,3.5066,3.506,3.5068,3.5058,3.5065,3.5073,3.5073,3.5074,3.5075,3.5078,3.5079,3.5065,3.5065,3.5066,0,3.5166,3.5159,3.5149,3.5146,3.5141,3.5131,3.5128,3.5122,3.5109,3.5106,3.5102,3.5088,3.5079,3.5073,3.5075,3.5071,3.507,3.5066,3.5075,3.5076,3.5077,3.508,3.5081,3.5066,3.5066,3.5066,3.5066,0,3.5167,3.5163,3.5162,3.5153,3.5148,3.5145,3.5135,3.5132,3.5126,3.5118,3.5113,3.5103,3.5094,3.5092,3.5085,3.5086,3.5084,3.5078,3.507,3.508,3.5082,3.5083,3.5068,3.5067,3.5067,3.5067,0,0,3.5176,3.5165,3.5164,3.5161,3.5151,3.5147,3.5144,3.5137,3.5135,3.5128,3.5125,3.5116,3.5111,3.5105,3.5098,3.5097,3.5105,3.5091,3.5091,3.5094,3.5107,3.5112,3.5113,3.51,3.51,3.51,3.5108,0,3.518,3.5175,3.5168,3.5165,3.5162,3.5153,3.5151,3.5145,3.5139,3.5135,3.5128,3.5122,3.5116,3.5113,3.5112,3.5104,3.5107,3.5104,3.5097,3.5097,3.5099,3.5114,3.5118,3.5126,3.5109,3.5109,3.5109,0,3.5182,3.5178,3.5175,3.5168,3.5167,3.5165,3.5159,3.5155,3.5149,3.5145,3.514,3.5133,3.513,3.5124,3.512,3.5118,3.5116,3.5112,3.5112,3.5109,3.5103,3.5112,3.5128,3.5129,3.5111,3.511,3.511,0,3.519,3.5183,3.5181,3.5179,3.517,3.5169,3.5166,3.5159,3.5156,3.5151,3.5149,3.5144,3.514,3.5136,3.5128,3.5125,3.5126,3.5119,3.5122,3.5122,3.5121,3.5121,3.5136,3.5121,3.5121,3.5121,3.5121,0,3.5194,3.5193,3.5185,3.5184,3.5183,3.5176,3.5175,3.517,3.5165,3.5163,3.5155,3.5153,3.5143,3.514,3.5134,3.5132,3.5131,3.5127,3.5126,3.5128,3.5128,3.5125,3.5124,3.5121,3.5121,3.5121,3.5121,0,3.5201,3.5196,3.5194,3.5187,3.5186,3.5185,3.5179,3.5178,3.5173,3.5171,3.517,3.5162,3.5159,3.5151,3.5145,3.5141,3.5141,3.5138,3.5143,3.5142,3.5146,3.5145,3.5158,3.516,3.5144,3.5144,3.5145,0,3.5204,3.5203,3.5198,3.5196,3.5194,3.5191,3.5189,3.5183,3.5181,3.5176,3.5175,3.5172,3.5168,3.5164,3.5157,3.5153,3.515,3.5155,3.5149,3.5152,3.515,3.515,3.515,3.5155,3.5155,3.5156,3.5156,0,3.5209,3.5208,3.5205,3.5203,3.5201,3.5199,3.5195,3.5195,3.5188,3.5186,3.5184,3.5182,3.5177,3.5174,3.517,3.5166,3.516,3.5158,3.5159,3.516,3.5164,3.5162,3.5146,3.5157,3.5157,3.5157,3.5157,3.5157,3.5214,3.5214,3.5211,3.5209,3.5207,3.5205,3.5204,3.5201,3.5199,3.5195,3.5192,3.519,3.5186,3.518,3.5177,3.5176,3.5173,3.5173,3.5173,3.5173,3.5175,3.5165,3.5175,3.5175,3.5175,3.5175,3.5175,0,3.5219,3.5218,3.5216,3.5214,3.5213,3.521,3.5207,3.5206,3.5205,3.5203,3.5201,3.5199,3.5197,3.5192,3.5189,3.5189,3.5187,3.5189,3.5188,3.5187,3.5177,3.5177,3.5191,3.5191,3.5191,3.5191,3.5191,3.5191,3.5222,3.5222,3.522,3.522,3.5218,3.5217,3.5216,3.5215,3.5213,3.5212,3.521,3.5208,3.5205,3.5202,3.5201,3.5199,3.5199,3.5202,3.5199,3.5189,3.5188,3.5186,3.5186,3.5202,3.5202,3.5209,3.521,3.521]}]]